TimeEDT,TemperatureF,Dew PointF,Humidity,Sea Level PressureIn,VisibilityMPH,Wind Direction,Wind SpeedMPH,Gust SpeedMPH,PrecipitationIn,Events,Conditions,WindDirDegrees,DateUTC
12:56 AM,35.1,28.9,78,30.40,-9999.0,South,5.8,-,N/A,,Unknown,180,2013-05-25 04:56:00
1:56 AM,34.0,28.0,79,30.39,-9999.0,South,5.8,-,N/A,,Unknown,190,2013-05-25 05:56:00
2:56 AM,33.1,28.0,82,30.39,-9999.0,South,6.9,-,N/A,,Unknown,190,2013-05-25 06:56:00
3:56 AM,32.0,27.0,82,30.39,-9999.0,South,8.1,-,N/A,,Unknown,180,2013-05-25 07:56:00
4:56 AM,32.0,27.0,82,30.40,-9999.0,South,8.1,-,N/A,,Unknown,180,2013-05-25 08:56:00
5:56 AM,30.9,26.1,82,30.41,-9999.0,South,6.9,-,N/A,,Unknown,180,2013-05-25 09:56:00
6:56 AM,32.0,27.0,82,30.41,-9999.0,South,4.6,-,N/A,,Unknown,180,2013-05-25 10:56:00
7:56 AM,37.9,30.0,73,30.44,-9999.0,South,4.6,-,N/A,,Unknown,190,2013-05-25 11:56:00
8:56 AM,45.0,35.1,68,30.46,-9999.0,Calm,Calm,-,N/A,,Unknown,0,2013-05-25 12:56:00
9:56 AM,48.9,36.0,61,30.46,-9999.0,NE,3.5,-,N/A,,Unknown,40,2013-05-25 13:56:00
10:56 AM,48.0,36.0,63,30.43,-9999.0,NNE,6.9,-,N/A,,Unknown,30,2013-05-25 14:56:00
11:56 AM,48.0,36.0,63,30.44,-9999.0,NNE,6.9,-,N/A,,Unknown,30,2013-05-25 15:56:00
12:56 PM,46.9,35.1,63,30.43,-9999.0,North,8.1,-,N/A,,Unknown,10,2013-05-25 16:56:00
1:56 PM,46.0,36.0,68,30.43,-9999.0,NNE,10.4,-,N/A,,Unknown,20,2013-05-25 17:56:00
2:56 PM,46.9,37.0,68,30.43,-9999.0,NNE,8.1,-,N/A,,Unknown,20,2013-05-25 18:56:00
3:56 PM,48.9,34.0,56,30.42,-9999.0,NNE,11.5,-,N/A,,Unknown,30,2013-05-25 19:56:00
4:56 PM,48.0,36.0,63,30.41,-9999.0,North,10.4,-,N/A,,Unknown,10,2013-05-25 20:56:00
5:56 PM,48.9,37.0,64,30.40,-9999.0,NNE,8.1,-,N/A,,Unknown,20,2013-05-25 21:56:00
6:56 PM,51.1,35.1,54,30.38,-9999.0,NNE,9.2,-,N/A,,Unknown,20,2013-05-25 22:56:00
7:56 PM,50.0,35.1,57,30.35,-9999.0,North,10.4,-,N/A,,Unknown,10,2013-05-25 23:56:00
8:56 PM,50.0,35.1,57,30.35,-9999.0,Calm,Calm,-,N/A,,Unknown,0,2013-05-26 00:56:00
9:56 PM,46.9,37.0,68,30.36,-9999.0,Calm,Calm,-,N/A,,Unknown,0,2013-05-26 01:56:00
10:56 PM,43.0,34.0,71,30.36,-9999.0,South,4.6,-,N/A,,Unknown,180,2013-05-26 02:56:00
11:56 PM,39.9,33.1,77,30.37,-9999.0,South,5.8,-,N/A,,Unknown,180,2013-05-26 03:56:00